Simultaneous Nadir Overpasses (SNOs) Predictions

Prediction of SNOs between GOES-16 and METOP-B Satellite Orbit:

Table of predicted SNOs for the next 14.0 days since TLE Epoch: 5/30/2025
Index Date Time (GOES-16) GOES-16 Lat,Lon METOP-B Lat,Lon Distance(km) Time Diff (sec)
1 06/01/2025 03:51:40 -0.04,-101.92 0.05,-101.53 44.42 80
2 06/02/2025 16:13:14 0.04,-102.76 0.78,-106.16 387.07 80
3 06/03/2025 15:49:55 0.04,-103.28 -0.41,-101.19 237.82 80
4 06/05/2025 04:11:39 -0.03,-104.06 -0.42,-105.85 203.87 80
5 06/06/2025 03:48:20 -0.03,-104.58 0.77,-100.88 421.19 80
6 06/07/2025 16:09:55 0.03,-105.42 0.05,-105.51 10.01 80
7 06/09/2025 04:28:57 -0.02,-106.19 -0.93,-110.15 452.01 80
8 06/10/2025 04:05:39 -0.02,-106.71 0.32,-105.20 172.72 80
9 06/11/2025 16:27:14 0.01,-107.55 0.50,-109.82 259.00 80
10 06/12/2025 16:03:55 0.01,-108.07 -0.70,-104.86 365.49 80
